#timestamp,LO_Frequency,Hit,StdDev 
1606835975.8,286047015.7,P
1606835995.7,286047016.1,P
1606836015.5,286047015.8,P
1606836035.3,286047017.5,Y
1606836055.2,286047004.1,P
1606836075.0,286047003.6,N
1606836075.9,286047003.6,N
1606836095.8,286047004.7,N
1606836115.6,286047003.3,N
1606836135.4,286047003.4,N
1606836155.3,286047004.6,N
1606836175.1,286047008.5,N
1606836195.9,286047010.4,N
1606836215.7,286047006.1,N
1606836235.5,286047008.4,N
1606836255.4,286047008.5,N
1606836275.2,286047007.7,N
1606836295.0,286047010.3,N
1606836295.9,286047010.3,N
1606836315.8,286047010.3,N
1606836335.6,286047009.8,N
1606836355.5,286047008.3,N
1606836375.3,286047009.0,N
1606836395.1,286047010.6,Y
1606836415.9,286047002.8,P
1606836435.7,286047000.4,N
1606836455.5,286047004.4,N
1606836475.4,286047002.8,N
1606836495.2,286046998.6,N
1606836515.1,286047000.3,N
1606836516.0,286047000.3,N
1606836535.8,286047000.8,N
1606836555.6,286046999.8,N
1606836575.5,286046999.8,N
1606836595.3,286047002.2,N
1606836615.1,286047004.4,N
1606836635.9,286047004.0,N
1606836655.7,286047003.7,N
1606836675.6,286047004.0,N
1606836695.4,286047001.4,N
1606836715.2,286047001.9,N
1606836735.1,286047001.6,N
1606836736.0,286047001.6,N
1606836755.8,286047001.7,N
1606836775.6,286047005.7,N
1606836795.5,286047004.6,N
1606836815.3,286047006.1,N
1606836835.2,286047006.6,N
1606836855.9,286047009.2,Y
1606836875.7,286047002.9,P
1606836895.6,286047006.0,P
1606836915.4,286047006.0,P
1606836935.2,286047005.9,Y
1606836955.1,286047000.6,P
1606836956.0,286047000.6,N
1606836975.8,286046999.1,N
1606836995.7,286047001.1,N
1606837015.5,286047004.3,N
1606837035.3,286047003.1,N
1606837055.2,286047000.9,N
1606837075.0,286047000.5,N
1606837075.9,286047000.5,N
1606837095.8,286047004.3,N
1606837115.6,286047003.5,N
1606837135.4,286047003.1,N
1606837155.3,286047003.6,N
1606837175.1,286047004.1,N
1606837195.9,286047005.6,Y
1606837215.7,286047002.6,P
1606837235.5,286047001.8,P
1606837255.4,286046999.8,N
1606837275.2,286047003.9,Y
1606837295.0,286047000.5,P
1606837295.9,286047000.5,N
1606837315.8,286046997.0,P
1606837335.6,286046996.8,N
1606837355.5,286046999.0,N
1606837375.3,286046998.7,N
1606837395.1,286046999.2,N
1606837415.9,286046996.5,N
1606837435.7,286047000.2,N
1606837455.5,286046998.1,N
1606837475.4,286047001.6,N
1606837495.2,286047001.8,N
1606837515.1,286047004.0,N
1606837516.0,286047004.0,N
1606837535.8,286046999.7,N
1606837555.6,286047001.9,N
1606837575.5,286047004.1,N
1606837595.3,286047000.1,N
1606837615.1,286047011.9,Y
1606837635.9,286046998.6,P
1606837655.7,286046998.8,N
1606837675.6,286046998.9,N
1606837695.4,286046999.4,N
1606837715.2,286046999.4,N
1606837735.1,286046998.7,N
1606837736.0,286046998.7,N
1606837755.8,286047001.1,N
1606837775.6,286046999.0,N
1606837795.5,286046997.8,N
1606837815.3,286046998.2,N
1606837835.2,286047000.9,N
1606837855.9,286046999.2,N
1606837875.7,286046999.1,N
1606837895.6,286046999.1,N
1606837915.4,286046996.7,Y
1606837935.2,286046997.0,P
1606837955.1,286046999.4,N
1606837956.0,286046999.4,N
1606837975.8,286046999.1,N
1606837995.7,286046998.7,N
1606838015.5,286046998.7,N
1606838035.3,286046996.9,Y
1606838055.2,286046996.5,P
1606838075.0,286046999.5,N
1606838075.9,286046999.5,N
1606838095.8,286047000.3,N
1606838115.6,286046998.2,N
1606838135.4,286046999.9,N
1606838155.3,286047000.8,N
1606838175.1,286046998.9,N
1606838195.8,286047001.1,N
1606838215.7,286046999.8,N
1606838235.5,286047001.8,N
1606838255.4,286047004.4,Y
1606838275.2,286047003.7,P
1606838295.0,286047003.6,N
1606838295.9,286047003.6,N
1606838315.8,286047003.5,N
1606838335.6,286047003.1,N
1606838355.4,286047004.4,N
1606838375.3,286047005.4,Y
1606838395.1,286047001.5,P
